Regional Weather Roundup
Issued by NWS

Home | Current Version | Previous Version | Text Only | Print | Product List | Glossary Off
Versions: 1 2 3 4 5 6 7 8 9 10 11 12 13 14 15 16 17 18 19 20 21 22 23 24 25 26 27 28 29 30 31 32 33 34 35 36 37 38 39 40 41 42 43 44 45 46 47 48 49 50

825
ASUS45 KCYS 242210
RWRWY

WYOMING REGIONAL WEATHER ROUNDUP
NATIONAL WEATHER SERVICE CHEYENNE WY
400 PM MDT FRI MAR 24 2017

NOTE:  "FAIR" INDICATES FEW OR NO CLOUDS BELOW 12,000 FEET
WITH NO SIGNIFICANT WEATHER AND/OR OBSTRUCTIONS TO VISIBILITY.

WYZ001-242300-
YELLOWSTONE NATIONAL PARK

CITY           SKY/WX    TMP DP  RH WIND       PRES   REMARKS
LK YELLOWSTONE   N/A     41  15  35 VRB6      30.09F
W YELLOWSTONE  NOT AVBL

$$
WYZ002>013-054>058-071-098>099-242300-
NORTHERN WYOMING

CITY           SKY/WX    TMP DP  RH WIND       PRES   REMARKS
JACKSON        NOT AVBL
CODY           FAIR      60  19  20 S13G18    29.96F
GREYBULL       FAIR      60  31  33 SE16      29.98F
WORLAND        FAIR      60  29  30 SE14G26   30.00F
SHERIDAN       FAIR      62  31  31 E14       29.95F
BUFFALO        FAIR      61  25  25 S12G18    29.98F
GILLETTE       FAIR      58  29  33 S10G17    30.03F
HULETT         FAIR      55  27  33 S5        30.06F
NEWCASTLE      FAIR      57  16  19 W7        30.07F

$$
WYZ014>020-022>026-101>103-242300-
CENTRAL WYOMING

CITY           SKY/WX    TMP DP  RH WIND       PRES   REMARKS
BIG PINEY      FAIR      44  31  60 S8        30.16F
PINEDALE       FAIR      41  27  56 CALM      30.18F
DUBOIS         FAIR      48  23  37 W15G24    30.07F
LANDER         FAIR      56  32  40 VRB6      30.02F
RIVERTON       FAIR      56  25  30 CALM      30.04F
CASPER         FAIR      56  24  29 SW9G16    30.06F
DOUGLAS        FAIR      57  24  28 W8        30.08F

$$
WYZ021-027>030-104>119-242300-
SOUTHERN WYOMING

CITY           SKY/WX    TMP DP  RH WIND       PRES   REMARKS
EVANSTON       FAIR      47  29  49 CALM      30.15F
KEMMERER         N/A     43  28  56 NW3       30.17F
FORT BRIDGER   FAIR      53  24  32 NW3       30.16F
ROCK SPRINGS   FAIR      51  29  42 S9        30.15F
DIXON            N/A     54  22  29 W6        30.17F
RAWLINS        FAIR      53  19  26 SW9       30.13F
SARATOGA       FAIR      50  21  32 NW12      30.14F
LARAMIE        FAIR      48  21  34 NW10      30.12F
CHEYENNE       FAIR      50  21  32 N17G24    30.12F
TORRINGTON     FAIR      60  16  18 NE13      30.08S
PINE BLUFFS    MOCLDY    50  28  43 NE9       30.11S

$$




USA.gov is the U.S. government's official web portal to all federal, state and local government web resources and services.